This is the latest recevied weather packets stored in our database for station/object KK4WXG. If no packets are shown the sender has not sent any weather packets the latest 10 day(s).
| Time | Temp. | Humidity | Pressure | Rain* | Wind** | Luminosity | Snow |
|---|---|---|---|---|---|---|---|
| 1777617604 | 3.33° C | 89% | 1014 hPa | 0 mm | - | 0 W/m² | - |
| 1777617301 | 3.33° C | 88% | 1014.2 hPa | 0 mm | - | 0 W/m² | - |
| 1777616998 | 3.89° C | 87% | 1014.2 hPa | 0 mm | - | 0 W/m² | - |
| 1777616693 | 3.89° C | 85% | 1014 hPa | 0 mm | - | 0 W/m² | - |
| 1777616388 | 4.44° C | 82% | 1014 hPa | 0 mm | - | 0 W/m² | - |
| 1777616085 | 5.56° C | 77% | 1014 hPa | 0 mm | - | 0 W/m² | - |
| 1777615783 | 6.67° C | 73% | 1014.1 hPa | 0 mm | - | 0 W/m² | - |
| 1777615479 | 7.22° C | 72% | 1014.2 hPa | 0 mm | - | 0 W/m² | - |
| 1777615178 | 6.67° C | 73% | 1014.3 hPa | 0 mm | - | 0 W/m² | - |
| 1777614874 | 7.22° C | 71% | 1014 hPa | 0 mm | - | 0 W/m² | - |
| 1777614571 | 7.22° C | 71% | 1014.3 hPa | 0 mm | - | 0 W/m² | - |
| 1777614266 | 7.22° C | 71% | 1014.2 hPa | 0 mm | - | 0 W/m² | - |
| 1777613961 | 7.22° C | 71% | 1014.2 hPa | 0 mm | - | 0 W/m² | - |
| 1777613658 | 7.22° C | 71% | 1014.1 hPa | 0 mm | - | 0 W/m² | - |
| 1777613356 | 6.67° C | 73% | 1014.3 hPa | 0 mm | - | 0 W/m² | - |
| 1777613052 | 6.67° C | 73% | 1014.2 hPa | 0 mm | - | 0 W/m² | - |
| 1777612749 | 6.67° C | 73% | 1014.2 hPa | 0 mm | - | 0 W/m² | - |
| 1777612444 | 6.67° C | 75% | 1014.4 hPa | 0 mm | - | 0 W/m² | - |
| 1777612140 | 6.67° C | 77% | 1014.1 hPa | 0 mm | - | 0 W/m² | - |
| 1777611835 | 6.11° C | 77% | 1014.3 hPa | 0 mm | - | 0 W/m² | - |
| 1777611531 | 5.56° C | 79% | 1014.3 hPa | 0 mm | - | 0 W/m² | - |
| 1777611228 | 5.56° C | 81% | 1014.3 hPa | 0 mm | - | 0 W/m² | - |
| 1777610925 | 5.56° C | 81% | 1014.1 hPa | 0 mm | - | 0 W/m² | - |
| 1777610620 | 5.56° C | 81% | 1014.3 hPa | 0 mm | - | 0 W/m² | - |
| 1777610319 | 5.56° C | 79% | 1014.2 hPa | 0 mm | - | 0 W/m² | - |
* Rain latest hour (hover to see other rain measurements)
** Current wind speed in m/s (hover to see current wind gust speed)